Year,Month,Day,Hour,Minute,Value (Times are PST for temperature in C)
2011,02,25,00,00,-4.20
2011,02,25,00,01,-4.20
2011,02,25,00,02,-4.20
2011,02,25,00,03,-4.20
2011,02,25,00,04,-4.20
2011,02,25,00,05,-4.20
2011,02,25,00,06,-4.20
2011,02,25,00,07,-4.30
2011,02,25,00,08,-4.30
2011,02,25,00,09,-4.30
2011,02,25,00,10,-4.30
2011,02,25,00,11,-4.30
2011,02,25,00,12,-4.30
2011,02,25,00,13,-4.30
2011,02,25,00,14,-4.30
2011,02,25,00,15,-4.30
2011,02,25,00,16,-4.30
2011,02,25,00,17,-4.30
2011,02,25,00,18,-4.30
2011,02,25,00,19,-4.30
2011,02,25,00,20,-4.30
2011,02,25,00,21,-4.30
2011,02,25,00,22,-4.30
2011,02,25,00,23,-4.30
2011,02,25,00,24,-4.30
2011,02,25,00,25,-4.30
2011,02,25,00,26,-4.30
2011,02,25,00,27,-4.30
2011,02,25,00,28,-4.30
2011,02,25,00,29,-4.30
2011,02,25,00,30,-4.30
2011,02,25,00,31,-4.30
2011,02,25,00,32,-4.40
2011,02,25,00,33,-4.40
2011,02,25,00,34,-4.40
2011,02,25,00,35,-4.40
2011,02,25,00,36,-4.40
2011,02,25,00,37,-4.50
2011,02,25,00,38,-4.50
2011,02,25,00,39,-4.50
2011,02,25,00,40,-4.60
2011,02,25,00,41,-4.60
2011,02,25,00,42,-4.60
2011,02,25,00,43,-4.60
2011,02,25,00,44,-4.70
2011,02,25,00,45,-4.70
2011,02,25,00,46,-4.70
2011,02,25,00,47,-4.70
2011,02,25,00,48,-4.70
2011,02,25,00,49,-4.70
2011,02,25,00,50,-4.70
2011,02,25,00,51,-4.70
2011,02,25,00,52,-4.70
2011,02,25,00,53,-4.70
2011,02,25,00,54,-4.70
2011,02,25,00,55,-4.70
2011,02,25,00,56,-4.70
2011,02,25,00,57,-4.70
2011,02,25,00,58,-4.70
2011,02,25,00,59,-4.70
2011,02,25,01,00,-4.80
2011,02,25,01,01,-4.80
2011,02,25,01,02,-4.80
2011,02,25,01,03,-4.80
2011,02,25,01,04,-4.80
2011,02,25,01,05,-4.80
2011,02,25,01,06,-4.80
2011,02,25,01,07,-4.80
2011,02,25,01,08,-4.80
2011,02,25,01,09,-4.80
2011,02,25,01,10,-4.80
2011,02,25,01,11,-4.80
2011,02,25,01,12,-4.80
2011,02,25,01,13,-4.80
2011,02,25,01,14,-4.80
2011,02,25,01,15,-4.80
2011,02,25,01,16,-4.80
2011,02,25,01,17,-4.80
2011,02,25,01,18,-4.80
2011,02,25,01,19,-4.80
2011,02,25,01,20,-4.80
2011,02,25,01,21,-4.80
2011,02,25,01,22,-4.80
2011,02,25,01,23,-4.80
2011,02,25,01,24,-4.80
2011,02,25,01,25,-4.80
2011,02,25,01,26,-4.80
2011,02,25,01,27,-4.80
2011,02,25,01,28,-4.90
2011,02,25,01,29,-4.90
2011,02,25,01,30,-4.90
2011,02,25,01,31,-5.00
2011,02,25,01,32,-5.00
2011,02,25,01,33,-5.10
2011,02,25,01,34,-5.10
2011,02,25,01,35,-5.10
2011,02,25,01,36,-5.10
2011,02,25,01,37,-5.10
2011,02,25,01,38,-5.10
2011,02,25,01,39,-5.10
2011,02,25,01,40,-5.10
2011,02,25,01,41,-5.20
2011,02,25,01,42,-5.20
2011,02,25,01,43,-5.20
2011,02,25,01,44,-5.20
2011,02,25,01,45,-5.30
2011,02,25,01,46,-5.30
2011,02,25,01,47,-5.30
2011,02,25,01,48,-5.30
2011,02,25,01,49,-5.40
2011,02,25,01,50,-5.40
2011,02,25,01,51,-5.50
2011,02,25,01,52,-5.60
2011,02,25,01,53,-5.70
2011,02,25,01,54,-5.80
2011,02,25,01,55,-5.90
2011,02,25,01,56,-6.00
2011,02,25,01,57,-6.10
2011,02,25,01,58,-6.20
2011,02,25,01,59,-6.30
2011,02,25,02,00,-6.40
2011,02,25,02,01,-6.50
2011,02,25,02,02,-6.60
2011,02,25,02,03,-6.70
2011,02,25,02,04,-6.70
2011,02,25,02,05,-6.80
2011,02,25,02,06,-6.90
2011,02,25,02,07,-6.90
2011,02,25,02,08,-7.00
2011,02,25,02,09,-7.00
2011,02,25,02,10,-7.10
2011,02,25,02,11,-7.10
2011,02,25,02,12,-7.20
2011,02,25,02,13,-7.20
2011,02,25,02,14,-7.20
2011,02,25,02,15,-7.30
2011,02,25,02,16,-7.30
2011,02,25,02,17,-7.30
2011,02,25,02,18,-7.30
2011,02,25,02,19,-7.30
2011,02,25,02,20,-7.30
2011,02,25,02,21,-7.30
2011,02,25,02,22,-7.30
2011,02,25,02,23,-7.30
2011,02,25,02,24,-7.30
2011,02,25,02,25,-7.30
2011,02,25,02,26,-7.30
2011,02,25,02,27,-7.30
2011,02,25,02,28,-7.30
2011,02,25,02,29,-7.30
2011,02,25,02,30,-7.30
2011,02,25,02,31,-7.30
2011,02,25,02,32,-7.30
2011,02,25,02,33,-7.30
2011,02,25,02,34,-7.30
2011,02,25,02,35,-7.30
2011,02,25,02,36,-7.30
2011,02,25,02,37,-7.30
2011,02,25,02,38,-7.30
2011,02,25,02,39,-7.30
2011,02,25,02,40,-7.40
2011,02,25,02,41,-7.40
2011,02,25,02,42,-7.40
2011,02,25,02,43,-7.40
2011,02,25,02,44,-7.40
2011,02,25,02,45,-7.40
2011,02,25,02,46,-7.50
2011,02,25,02,47,-7.50
2011,02,25,02,48,-7.50
2011,02,25,02,49,-7.60
2011,02,25,02,50,-7.60
2011,02,25,02,51,-7.60
2011,02,25,02,52,-7.70
2011,02,25,02,53,-7.70
2011,02,25,02,54,-7.70
2011,02,25,02,55,-7.70
2011,02,25,02,56,-7.70
2011,02,25,02,57,-7.80
2011,02,25,02,58,-7.80
2011,02,25,02,59,-7.80
2011,02,25,03,00,-7.90
2011,02,25,03,01,-7.90
2011,02,25,03,02,-7.90
2011,02,25,03,03,-8.00
2011,02,25,03,04,-8.00
2011,02,25,03,05,-8.00
2011,02,25,03,06,-8.00
2011,02,25,03,07,-8.10
2011,02,25,03,08,-8.10
2011,02,25,03,09,-8.10
2011,02,25,03,10,-8.10
2011,02,25,03,11,-8.10
2011,02,25,03,12,-8.10
2011,02,25,03,13,-8.10
2011,02,25,03,14,-8.10
2011,02,25,03,15,-8.20
2011,02,25,03,16,-8.20
2011,02,25,03,17,-8.20
2011,02,25,03,18,-8.20
2011,02,25,03,19,-8.20
2011,02,25,03,20,-8.20
2011,02,25,03,21,-8.20
2011,02,25,03,22,-8.20
2011,02,25,03,23,-8.20
2011,02,25,03,24,-8.20
2011,02,25,03,25,-8.20
2011,02,25,03,26,-8.20
2011,02,25,03,27,-8.20
2011,02,25,03,28,-8.20
2011,02,25,03,29,-8.30
2011,02,25,03,30,-8.30
2011,02,25,03,31,-8.30
2011,02,25,03,32,-8.30
2011,02,25,03,33,-8.40
2011,02,25,03,34,-8.40
2011,02,25,03,35,-8.40
2011,02,25,03,36,-8.40
2011,02,25,03,37,-8.40
2011,02,25,03,38,-8.50
2011,02,25,03,39,-8.50
2011,02,25,03,40,-8.50
2011,02,25,03,41,-8.50
2011,02,25,03,42,-8.50
2011,02,25,03,43,-8.60
2011,02,25,03,44,-8.50
2011,02,25,03,45,-8.60
2011,02,25,03,46,-8.60
2011,02,25,03,47,-8.60
2011,02,25,03,48,-8.60
2011,02,25,03,49,-8.60
2011,02,25,03,50,-8.60
2011,02,25,03,51,-8.60
2011,02,25,03,52,-8.60
2011,02,25,03,53,-8.70
2011,02,25,03,54,-8.70
2011,02,25,03,55,-8.70
2011,02,25,03,56,-8.70
2011,02,25,03,57,-8.70
2011,02,25,03,58,-8.70
2011,02,25,03,59,-8.70
2011,02,25,04,00,-8.70
2011,02,25,04,01,-8.60
2011,02,25,04,02,-8.60
2011,02,25,04,03,-8.60
2011,02,25,04,04,-8.60
2011,02,25,04,05,-8.60
2011,02,25,04,06,-8.60
2011,02,25,04,07,-8.60
2011,02,25,04,08,-8.60
2011,02,25,04,09,-8.60
2011,02,25,04,10,-8.60
2011,02,25,04,11,-8.60
2011,02,25,04,12,-8.60
2011,02,25,04,13,-8.60
2011,02,25,04,14,-8.60
2011,02,25,04,15,-8.60
2011,02,25,04,16,-8.60
2011,02,25,04,17,-8.70
2011,02,25,04,18,-8.70
2011,02,25,04,19,-8.70
2011,02,25,04,20,-8.70
2011,02,25,04,21,-8.70
2011,02,25,04,22,-8.70
2011,02,25,04,23,-8.70
2011,02,25,04,24,-8.70
2011,02,25,04,25,-8.70
2011,02,25,04,26,-8.60
2011,02,25,04,27,-8.60
2011,02,25,04,28,-8.60
2011,02,25,04,29,-8.60
2011,02,25,04,30,-8.60
2011,02,25,04,31,-8.60
2011,02,25,04,32,-8.60
2011,02,25,04,33,-8.60
2011,02,25,04,34,-8.60
2011,02,25,04,35,-8.60
2011,02,25,04,36,-8.60
2011,02,25,04,37,-8.60
2011,02,25,04,38,-8.60
2011,02,25,04,39,-8.60
2011,02,25,04,40,-8.70
2011,02,25,04,41,-8.70
2011,02,25,04,42,-8.70
2011,02,25,04,43,-8.70
2011,02,25,04,44,-8.70
2011,02,25,04,45,-8.70
2011,02,25,04,46,-8.70
2011,02,25,04,47,-8.70
2011,02,25,04,48,-8.80
2011,02,25,04,49,-8.80
2011,02,25,04,50,-8.80
2011,02,25,04,51,-8.80
2011,02,25,04,52,-8.80
2011,02,25,04,53,-8.80
2011,02,25,04,54,-8.90
2011,02,25,04,55,-8.90
2011,02,25,04,56,-8.90
2011,02,25,04,57,-8.90
2011,02,25,04,58,-8.90
2011,02,25,04,59,-8.90
2011,02,25,05,00,-8.90
2011,02,25,05,01,-8.90
2011,02,25,05,02,-8.90
2011,02,25,05,03,-8.90
2011,02,25,05,04,-8.90
2011,02,25,05,05,-8.90
2011,02,25,05,06,-9.00
2011,02,25,05,07,-9.00
2011,02,25,05,08,-9.00
2011,02,25,05,09,-9.00
2011,02,25,05,10,-9.00
2011,02,25,05,11,-8.90
2011,02,25,05,12,-8.90
2011,02,25,05,13,-8.90
2011,02,25,05,14,-9.00
2011,02,25,05,15,-9.00
2011,02,25,05,16,-9.00
2011,02,25,05,17,-9.00
2011,02,25,05,18,-9.00
2011,02,25,05,19,-9.00
2011,02,25,05,20,-9.00
2011,02,25,05,21,-9.00
2011,02,25,05,22,-9.00
2011,02,25,05,23,-9.00
2011,02,25,05,24,-9.00
2011,02,25,05,25,-9.00
2011,02,25,05,26,-9.10
2011,02,25,05,27,-9.10
2011,02,25,05,28,-9.10
2011,02,25,05,29,-9.10
2011,02,25,05,30,-9.10
2011,02,25,05,31,-9.10
2011,02,25,05,32,-9.10
2011,02,25,05,33,-9.10
2011,02,25,05,34,-9.10
2011,02,25,05,35,-9.10
2011,02,25,05,36,-9.20
2011,02,25,05,37,-9.20
2011,02,25,05,38,-9.20
2011,02,25,05,39,-9.20
2011,02,25,05,40,-9.20
2011,02,25,05,41,-9.20
2011,02,25,05,42,-9.20
2011,02,25,05,43,-9.20
2011,02,25,05,44,-9.20
2011,02,25,05,45,-9.20
2011,02,25,05,46,-9.20
2011,02,25,05,47,-9.20
2011,02,25,05,48,-9.20
2011,02,25,05,49,-9.20
2011,02,25,05,50,-9.20
2011,02,25,05,51,-9.30
2011,02,25,05,52,-9.30
2011,02,25,05,53,-9.30
2011,02,25,05,54,-9.30
2011,02,25,05,55,-9.30
2011,02,25,05,56,-9.30
2011,02,25,05,57,-9.30
2011,02,25,05,58,-9.30
2011,02,25,05,59,-9.30
2011,02,25,06,00,-9.30
2011,02,25,06,01,-9.40
2011,02,25,06,02,-9.40
2011,02,25,06,03,-9.40
2011,02,25,06,04,-9.40
2011,02,25,06,05,-9.40
2011,02,25,06,06,-9.40
2011,02,25,06,07,-9.40
2011,02,25,06,08,-9.40
2011,02,25,06,09,-9.50
2011,02,25,06,10,-9.50
2011,02,25,06,11,-9.50
2011,02,25,06,12,-9.50
2011,02,25,06,13,-9.50
2011,02,25,06,14,-9.50
2011,02,25,06,15,-9.50
2011,02,25,06,16,-9.60
2011,02,25,06,17,-9.60
2011,02,25,06,18,-9.60
2011,02,25,06,19,-9.60
2011,02,25,06,20,-9.60
2011,02,25,06,21,-9.60
2011,02,25,06,22,-9.60
2011,02,25,06,23,-9.60
2011,02,25,06,24,-9.60
2011,02,25,06,25,-9.60
2011,02,25,06,26,-9.60
2011,02,25,06,27,-9.60
2011,02,25,06,28,-9.60
2011,02,25,06,29,-9.60
2011,02,25,06,30,-9.60
2011,02,25,06,31,-9.60
2011,02,25,06,32,-9.60
2011,02,25,06,33,-9.60
2011,02,25,06,34,-9.60
2011,02,25,06,35,-9.70
2011,02,25,06,36,-9.70
2011,02,25,06,37,-9.70
2011,02,25,06,38,-9.70
2011,02,25,06,39,-9.70
2011,02,25,06,40,-9.70
2011,02,25,06,41,-9.70
2011,02,25,06,42,-9.70
2011,02,25,06,43,-9.70
2011,02,25,06,44,-9.70
2011,02,25,06,45,-9.80
2011,02,25,06,46,-9.80
2011,02,25,06,47,-9.80
2011,02,25,06,48,-9.80
2011,02,25,06,49,-9.80
2011,02,25,06,50,-9.80
2011,02,25,06,51,-9.80
2011,02,25,06,52,-9.80
2011,02,25,06,53,-9.80
2011,02,25,06,54,-9.80
2011,02,25,06,55,-9.80
2011,02,25,06,56,-9.80
2011,02,25,06,57,-9.80
2011,02,25,06,58,-9.80
2011,02,25,06,59,-9.80
2011,02,25,07,00,-9.80
2011,02,25,07,01,-9.90
2011,02,25,07,02,-9.90
2011,02,25,07,03,-9.90
2011,02,25,07,04,-9.90
2011,02,25,07,05,-9.90
2011,02,25,07,06,-9.90
2011,02,25,07,07,-9.90
2011,02,25,07,08,-9.90
2011,02,25,07,09,-9.90
2011,02,25,07,10,-9.90
2011,02,25,07,11,-9.90
2011,02,25,07,12,-9.90
2011,02,25,07,13,-9.90
2011,02,25,07,14,-9.90
2011,02,25,07,15,-9.90
2011,02,25,07,16,-9.90
2011,02,25,07,17,-9.90
2011,02,25,07,18,-9.90
2011,02,25,07,19,-9.90
2011,02,25,07,20,-9.90
2011,02,25,07,21,-9.90
2011,02,25,07,22,-10.00
2011,02,25,07,23,-10.00
2011,02,25,07,24,-10.00
2011,02,25,07,25,-10.00
2011,02,25,07,26,-10.00
2011,02,25,07,27,-10.00
2011,02,25,07,28,-10.00
2011,02,25,07,29,-10.00
2011,02,25,07,30,-10.00
2011,02,25,07,31,-10.00
2011,02,25,07,32,-10.00
2011,02,25,07,33,-9.90
2011,02,25,07,34,-9.90
2011,02,25,07,35,-9.90
2011,02,25,07,36,-9.90
2011,02,25,07,37,-9.90
2011,02,25,07,38,-9.90
2011,02,25,07,39,-9.90
2011,02,25,07,40,-9.90
2011,02,25,07,41,-9.90
2011,02,25,07,42,-9.90
2011,02,25,07,43,-9.80
2011,02,25,07,44,-9.80
2011,02,25,07,45,-9.80
2011,02,25,07,46,-9.80
2011,02,25,07,47,-9.70
2011,02,25,07,48,-9.70
2011,02,25,07,49,-9.70
2011,02,25,07,50,-9.60
2011,02,25,07,51,-9.60
2011,02,25,07,52,-9.60
2011,02,25,07,53,-9.50
2011,02,25,07,54,-9.50
2011,02,25,07,55,-9.50
2011,02,25,07,56,-9.40
2011,02,25,07,57,-9.40
2011,02,25,07,58,-9.40
2011,02,25,07,59,-9.30
2011,02,25,08,00,-9.30
2011,02,25,08,01,-9.20
2011,02,25,08,02,-9.20
2011,02,25,08,03,-9.10
2011,02,25,08,04,-9.10
2011,02,25,08,05,-9.00
2011,02,25,08,06,-9.00
2011,02,25,08,07,-9.00
2011,02,25,08,08,-8.90
2011,02,25,08,09,-8.90
2011,02,25,08,10,-8.80
2011,02,25,08,11,-8.80
2011,02,25,08,12,-8.70
2011,02,25,08,13,-8.70
2011,02,25,08,14,-8.60
2011,02,25,08,15,-8.60
2011,02,25,08,16,-8.60
2011,02,25,08,17,-8.50
2011,02,25,08,18,-8.50
2011,02,25,08,19,-8.50
2011,02,25,08,20,-8.40
2011,02,25,08,21,-8.40
2011,02,25,08,22,-8.40
2011,02,25,08,23,-8.30
2011,02,25,08,24,-8.30
2011,02,25,08,25,-8.30
2011,02,25,08,26,-8.20
2011,02,25,08,27,-8.20
2011,02,25,08,28,-8.10
2011,02,25,08,29,-8.10
2011,02,25,08,30,-8.00
2011,02,25,08,31,-8.00
2011,02,25,08,32,-7.90
2011,02,25,08,33,-7.90
2011,02,25,08,34,-7.80
2011,02,25,08,35,-7.80
2011,02,25,08,36,-7.80
2011,02,25,08,37,-7.70
2011,02,25,08,38,-7.60
2011,02,25,08,39,-7.50
2011,02,25,08,40,-7.40
2011,02,25,08,41,-7.30
2011,02,25,08,42,-7.20
2011,02,25,08,43,-7.20
2011,02,25,08,44,-7.10
2011,02,25,08,45,-7.00
2011,02,25,08,46,-6.90
2011,02,25,08,47,-6.80
2011,02,25,08,48,-6.80
2011,02,25,08,49,-6.70
2011,02,25,08,50,-6.70
2011,02,25,08,51,-6.60
2011,02,25,08,52,-6.60
2011,02,25,08,53,-6.50
2011,02,25,08,54,-6.40
2011,02,25,08,55,-6.40
2011,02,25,08,56,-6.30
2011,02,25,08,57,-6.20
2011,02,25,08,58,-6.20
2011,02,25,08,59,-6.10
2011,02,25,09,00,-6.10
2011,02,25,09,01,-6.00
2011,02,25,09,02,-6.00
2011,02,25,09,03,-5.90
2011,02,25,09,04,-5.90
2011,02,25,09,05,-5.80
2011,02,25,09,06,-5.80
2011,02,25,09,07,-5.70
2011,02,25,09,08,-5.70
2011,02,25,09,09,-5.60
2011,02,25,09,10,-5.60
2011,02,25,09,11,-5.50
2011,02,25,09,12,-5.50
2011,02,25,09,13,-5.40
2011,02,25,09,14,-5.40
2011,02,25,09,15,-5.30
2011,02,25,09,16,-5.30
2011,02,25,09,17,-5.30
2011,02,25,09,18,-5.20
2011,02,25,09,19,-5.20
2011,02,25,09,20,-5.10
2011,02,25,09,21,-5.10
2011,02,25,09,22,-5.10
2011,02,25,09,23,-5.00
2011,02,25,09,24,-5.00
2011,02,25,09,25,-4.90
2011,02,25,09,26,-4.90
2011,02,25,09,27,-4.80
2011,02,25,09,28,-4.70
2011,02,25,09,29,-4.70
2011,02,25,09,30,-4.60
2011,02,25,09,31,-4.50
2011,02,25,09,32,-4.40
2011,02,25,09,33,-4.30
2011,02,25,09,34,-4.20
2011,02,25,09,35,-4.10
2011,02,25,09,36,-4.10
2011,02,25,09,37,-4.00
2011,02,25,09,38,-4.00
2011,02,25,09,39,-4.00
2011,02,25,09,40,-3.90
2011,02,25,09,41,-3.90
2011,02,25,09,42,-3.90
2011,02,25,09,43,-3.90
2011,02,25,09,44,-3.90
2011,02,25,09,45,-3.80
2011,02,25,09,46,-3.80
2011,02,25,09,47,-3.80
2011,02,25,09,48,-3.70
2011,02,25,09,49,-3.70
2011,02,25,09,50,-3.70
2011,02,25,09,51,-3.60
2011,02,25,09,52,-3.60
2011,02,25,09,53,-3.50
2011,02,25,09,54,-3.50
2011,02,25,09,55,-3.50
2011,02,25,09,56,-3.40
2011,02,25,09,57,-3.40
2011,02,25,09,58,-3.40
2011,02,25,09,59,-3.40
2011,02,25,10,00,-3.40
2011,02,25,10,01,-3.40
2011,02,25,10,02,-3.40
2011,02,25,10,03,-3.40
2011,02,25,10,04,-3.40
2011,02,25,10,05,-3.40
2011,02,25,10,06,-3.40
2011,02,25,10,07,-3.40
2011,02,25,10,08,-3.40
2011,02,25,10,09,-3.40
2011,02,25,10,10,-3.40
2011,02,25,10,11,-3.40
2011,02,25,10,12,-3.40
2011,02,25,10,13,-3.40
2011,02,25,10,14,-3.30
2011,02,25,10,15,-3.30
2011,02,25,10,16,-3.30
2011,02,25,10,17,-3.20
2011,02,25,10,18,-3.20
2011,02,25,10,19,-3.20
2011,02,25,10,20,-3.10
2011,02,25,10,21,-3.10
2011,02,25,10,22,-3.10
2011,02,25,10,23,-3.00
2011,02,25,10,24,-3.00
2011,02,25,10,25,-3.00
2011,02,25,10,26,-3.00
2011,02,25,10,27,-3.00
2011,02,25,10,28,-2.90
2011,02,25,10,29,-2.90
2011,02,25,10,30,-3.00
2011,02,25,10,31,-3.00
2011,02,25,10,32,-3.00
2011,02,25,10,33,-3.00
2011,02,25,10,34,-3.10
2011,02,25,10,35,-3.10
2011,02,25,10,36,-3.10
2011,02,25,10,37,-3.10
2011,02,25,10,38,-3.10
2011,02,25,10,39,-3.10
2011,02,25,10,40,-3.10
2011,02,25,10,41,-3.10
2011,02,25,10,42,-3.10
2011,02,25,10,43,-3.10
2011,02,25,10,44,-3.00
2011,02,25,10,45,-3.00
2011,02,25,10,46,-3.00
2011,02,25,10,47,-2.90
2011,02,25,10,48,-2.90
2011,02,25,10,49,-2.90
2011,02,25,10,50,-2.90
2011,02,25,10,51,-2.80
2011,02,25,10,52,-2.80
2011,02,25,10,53,-2.80
2011,02,25,10,54,-2.70
2011,02,25,10,55,-2.60
2011,02,25,10,56,-2.60
2011,02,25,10,57,-2.50
2011,02,25,10,58,-2.40
2011,02,25,10,59,-2.40
2011,02,25,11,00,-2.40
2011,02,25,11,01,-2.40
2011,02,25,11,02,-2.30
2011,02,25,11,03,-2.30
2011,02,25,11,04,-2.30
2011,02,25,11,05,-2.20
2011,02,25,11,06,-2.20
2011,02,25,11,07,-2.10
2011,02,25,11,08,-2.20
2011,02,25,11,09,-2.20
2011,02,25,11,10,-2.20
2011,02,25,11,11,-2.20
2011,02,25,11,12,-2.20
2011,02,25,11,13,-2.20
2011,02,25,11,14,-2.20
2011,02,25,11,15,-2.30
2011,02,25,11,16,-2.30
2011,02,25,11,17,-2.30
2011,02,25,11,18,-2.30
2011,02,25,11,19,-2.30
2011,02,25,11,20,-2.30
2011,02,25,11,21,-2.30
2011,02,25,11,22,-2.30
2011,02,25,11,23,-2.20
2011,02,25,11,24,-2.20
2011,02,25,11,25,-2.20
2011,02,25,11,26,-2.20
2011,02,25,11,27,-2.10
2011,02,25,11,28,-2.00
2011,02,25,11,29,-2.00
2011,02,25,11,30,-1.90
2011,02,25,11,31,-1.90
2011,02,25,11,32,-1.90
2011,02,25,11,33,-1.90
2011,02,25,11,34,-1.80
2011,02,25,11,35,-1.80
2011,02,25,11,36,-1.70
2011,02,25,11,37,-1.70
2011,02,25,11,38,-1.60
2011,02,25,11,39,-1.60
2011,02,25,11,40,-1.70
2011,02,25,11,41,-1.70
2011,02,25,11,42,-1.70
2011,02,25,11,43,-1.70
2011,02,25,11,44,-1.60
2011,02,25,11,45,-1.60
2011,02,25,11,46,-1.60
2011,02,25,11,47,-1.60
2011,02,25,11,48,-1.60
2011,02,25,11,49,-1.60
2011,02,25,11,50,-1.70
2011,02,25,11,51,-1.80
2011,02,25,11,52,-1.90
2011,02,25,11,53,-1.90
2011,02,25,11,54,-2.00
2011,02,25,11,55,-2.00
2011,02,25,11,56,-2.10
2011,02,25,11,57,-2.10
2011,02,25,11,58,-2.00
2011,02,25,11,59,-2.00
2011,02,25,12,00,-2.00
2011,02,25,12,01,-1.90
2011,02,25,12,02,-1.90
2011,02,25,12,03,-1.90
2011,02,25,12,04,-1.80
2011,02,25,12,05,-1.80
2011,02,25,12,06,-1.80
2011,02,25,12,07,-1.70
2011,02,25,12,08,-1.70
2011,02,25,12,09,-1.70
2011,02,25,12,10,-1.60
2011,02,25,12,11,-1.60
2011,02,25,12,12,-1.60
2011,02,25,12,13,-1.60
2011,02,25,12,14,-1.50
2011,02,25,12,15,-1.50
2011,02,25,12,16,-1.40
2011,02,25,12,17,-1.40
2011,02,25,12,18,-1.40
2011,02,25,12,19,-1.40
2011,02,25,12,20,-1.50
2011,02,25,12,21,-1.50
2011,02,25,12,22,-1.60
2011,02,25,12,23,-1.60
2011,02,25,12,24,-1.60
2011,02,25,12,25,-1.60
2011,02,25,12,26,-1.60
2011,02,25,12,27,-1.50
2011,02,25,12,28,-1.50
2011,02,25,12,29,-1.50
2011,02,25,12,30,-1.50
2011,02,25,12,31,-1.50
2011,02,25,12,32,-1.40
2011,02,25,12,33,-1.40
2011,02,25,12,34,-1.30
2011,02,25,12,35,-1.40
2011,02,25,12,36,-1.40
2011,02,25,12,37,-1.40
2011,02,25,12,38,-1.50
2011,02,25,12,39,-1.50
2011,02,25,12,40,-1.50
2011,02,25,12,41,-1.50
2011,02,25,12,42,-1.40
2011,02,25,12,43,-1.40
2011,02,25,12,44,-1.30
2011,02,25,12,45,-1.30
2011,02,25,12,46,-1.40
2011,02,25,12,47,-1.40
2011,02,25,12,48,-1.50
2011,02,25,12,49,-1.50
2011,02,25,12,50,-1.50
2011,02,25,12,51,-1.50
2011,02,25,12,52,-1.50
2011,02,25,12,53,-1.40
2011,02,25,12,54,-1.40
2011,02,25,12,55,-1.30
2011,02,25,12,56,-1.20
2011,02,25,12,57,-1.20
2011,02,25,12,58,-1.20
2011,02,25,12,59,-1.20
2011,02,25,13,00,-1.20
2011,02,25,13,01,-1.20
2011,02,25,13,02,-1.20
2011,02,25,13,03,-1.20
2011,02,25,13,04,-1.10
2011,02,25,13,05,-1.10
2011,02,25,13,06,-1.10
2011,02,25,13,07,-1.10
2011,02,25,13,08,-1.10
2011,02,25,13,09,-1.20
2011,02,25,13,10,-1.20
2011,02,25,13,11,-1.20
2011,02,25,13,12,-1.20
2011,02,25,13,13,-1.20
2011,02,25,13,14,-1.20
2011,02,25,13,15,-1.20
2011,02,25,13,16,-1.20
2011,02,25,13,17,-1.20
2011,02,25,13,18,-1.20
2011,02,25,13,19,-1.10
2011,02,25,13,20,-1.10
2011,02,25,13,21,-1.00
2011,02,25,13,22,-0.90
2011,02,25,13,23,-0.90
2011,02,25,13,24,-0.90
2011,02,25,13,25,-0.80
2011,02,25,13,26,-0.80
2011,02,25,13,27,-0.70
2011,02,25,13,28,-0.70
2011,02,25,13,29,-0.70
2011,02,25,13,30,-0.70
2011,02,25,13,31,-0.70
2011,02,25,13,32,-0.80
2011,02,25,13,33,-0.80
2011,02,25,13,34,-0.90
2011,02,25,13,35,-0.90
2011,02,25,13,36,-0.90
2011,02,25,13,37,-0.90
2011,02,25,13,38,-0.90
2011,02,25,13,39,-0.90
2011,02,25,13,40,-1.00
2011,02,25,13,41,-1.00
2011,02,25,13,42,-1.00
2011,02,25,13,43,-1.00
2011,02,25,13,44,-1.00
2011,02,25,13,45,-1.00
2011,02,25,13,46,-1.00
2011,02,25,13,47,-1.10
2011,02,25,13,48,-1.10
2011,02,25,13,49,-1.10
2011,02,25,13,50,-1.10
2011,02,25,13,51,-1.00
2011,02,25,13,52,-1.00
2011,02,25,13,53,-0.90
2011,02,25,13,54,-0.80
2011,02,25,13,55,-0.80
2011,02,25,13,56,-0.80
2011,02,25,13,57,-0.80
2011,02,25,13,58,-0.80
2011,02,25,13,59,-0.80
2011,02,25,14,00,-0.90
2011,02,25,14,01,-0.90
2011,02,25,14,02,-1.00
2011,02,25,14,03,-1.00
2011,02,25,14,04,-1.00
2011,02,25,14,05,-1.00
2011,02,25,14,06,-1.00
2011,02,25,14,07,-0.90
2011,02,25,14,08,-0.90
2011,02,25,14,09,-0.80
2011,02,25,14,10,-0.80
2011,02,25,14,11,-0.80
2011,02,25,14,12,-0.70
2011,02,25,14,13,-0.60
2011,02,25,14,14,-0.60
2011,02,25,14,15,-0.50
2011,02,25,14,16,-0.50
2011,02,25,14,17,-0.40
2011,02,25,14,18,-0.40
2011,02,25,14,19,-0.40
2011,02,25,14,20,-0.40
2011,02,25,14,21,-0.30
2011,02,25,14,22,-0.30
2011,02,25,14,23,-0.30
2011,02,25,14,24,-0.30
2011,02,25,14,25,-0.20
2011,02,25,14,26,-0.20
2011,02,25,14,27,-0.30
2011,02,25,14,28,-0.30
2011,02,25,14,29,-0.40
2011,02,25,14,30,-0.50
2011,02,25,14,31,-0.60
2011,02,25,14,32,-0.70
2011,02,25,14,33,-0.80
2011,02,25,14,34,-0.80
2011,02,25,14,35,-0.90
2011,02,25,14,36,-0.90
2011,02,25,14,37,-0.90
2011,02,25,14,38,-0.80
2011,02,25,14,39,-0.80
2011,02,25,14,40,-0.80
2011,02,25,14,41,-0.80
2011,02,25,14,42,-0.80
2011,02,25,14,43,-0.80
2011,02,25,14,44,-0.80
2011,02,25,14,45,-0.80
2011,02,25,14,46,-0.80
2011,02,25,14,47,-0.80
2011,02,25,14,48,-0.80
2011,02,25,14,49,-0.80
2011,02,25,14,50,-0.80
2011,02,25,14,51,-0.80
2011,02,25,14,52,-0.80
2011,02,25,14,53,-0.70
2011,02,25,14,54,-0.70
2011,02,25,14,55,-0.60
2011,02,25,14,56,-0.60
2011,02,25,14,57,-0.50
2011,02,25,14,58,-0.50
2011,02,25,14,59,-0.40
2011,02,25,15,00,-0.30
2011,02,25,15,01,-0.30
2011,02,25,15,02,-0.30
2011,02,25,15,03,-0.20
2011,02,25,15,04,-0.20
2011,02,25,15,05,-0.20
2011,02,25,15,06,-0.20
2011,02,25,15,07,-0.20
2011,02,25,15,08,-0.20
2011,02,25,15,09,-0.30
2011,02,25,15,10,-0.30
2011,02,25,15,11,-0.30
2011,02,25,15,12,-0.40
2011,02,25,15,13,-0.40
2011,02,25,15,14,-0.40
2011,02,25,15,15,-0.50
2011,02,25,15,16,-0.50
2011,02,25,15,17,-0.50
2011,02,25,15,18,-0.50
2011,02,25,15,19,-0.60
2011,02,25,15,20,-0.60
2011,02,25,15,21,-0.60
2011,02,25,15,22,-0.60
2011,02,25,15,23,-0.60
2011,02,25,15,24,-0.60
2011,02,25,15,25,-0.60
2011,02,25,15,26,-0.60
2011,02,25,15,27,-0.60
2011,02,25,15,28,-0.60
2011,02,25,15,29,-0.50
2011,02,25,15,30,-0.50
2011,02,25,15,31,-0.50
2011,02,25,15,32,-0.40
2011,02,25,15,33,-0.40
2011,02,25,15,34,-0.30
2011,02,25,15,35,-0.30
2011,02,25,15,36,-0.30
2011,02,25,15,37,-0.30
2011,02,25,15,38,-0.30
2011,02,25,15,39,-0.30
2011,02,25,15,40,-0.30
2011,02,25,15,41,-0.30
2011,02,25,15,42,-0.30
2011,02,25,15,43,-0.30
2011,02,25,15,44,-0.30
2011,02,25,15,45,-0.30
2011,02,25,15,46,-0.40
2011,02,25,15,47,-0.40
2011,02,25,15,48,-0.40
2011,02,25,15,49,-0.30
2011,02,25,15,50,-0.30
2011,02,25,15,51,-0.40
2011,02,25,15,52,-0.40
2011,02,25,15,53,-0.40
2011,02,25,15,54,-0.30
2011,02,25,15,55,-0.30
2011,02,25,15,56,-0.30
2011,02,25,15,57,-0.20
2011,02,25,15,58,-0.20
2011,02,25,15,59,-0.20
2011,02,25,16,00,-0.20
2011,02,25,16,01,-0.20
2011,02,25,16,02,-0.20
2011,02,25,16,03,-0.20
2011,02,25,16,04,-0.20
2011,02,25,16,05,-0.20
2011,02,25,16,06,-0.30
2011,02,25,16,07,-0.30
2011,02,25,16,08,-0.30
2011,02,25,16,09,-0.30
2011,02,25,16,10,-0.30
2011,02,25,16,11,-0.30
2011,02,25,16,12,-0.30
2011,02,25,16,13,-0.40
2011,02,25,16,14,-0.40
2011,02,25,16,15,-0.40
2011,02,25,16,16,-0.40
2011,02,25,16,17,-0.40
2011,02,25,16,18,-0.40
2011,02,25,16,19,-0.40
2011,02,25,16,20,-0.40
2011,02,25,16,21,-0.40
2011,02,25,16,22,-0.40
2011,02,25,16,23,-0.40
2011,02,25,16,24,-0.40
2011,02,25,16,25,-0.40
2011,02,25,16,26,-0.40
2011,02,25,16,27,-0.40
2011,02,25,16,28,-0.40
2011,02,25,16,29,-0.40
2011,02,25,16,30,-0.40
2011,02,25,16,31,-0.40
2011,02,25,16,32,-0.40
2011,02,25,16,33,-0.40
2011,02,25,16,34,-0.40
2011,02,25,16,35,-0.40
2011,02,25,16,36,-0.40
2011,02,25,16,37,-0.40
2011,02,25,16,38,-0.40
2011,02,25,16,39,-0.50
2011,02,25,16,40,-0.50
2011,02,25,16,41,-0.50
2011,02,25,16,42,-0.50
2011,02,25,16,43,-0.60
2011,02,25,16,44,-0.60
2011,02,25,16,45,-0.60
2011,02,25,16,46,-0.60
2011,02,25,16,47,-0.60
2011,02,25,16,48,-0.60
2011,02,25,16,49,-0.60
2011,02,25,16,50,-0.60
2011,02,25,16,51,-0.60
2011,02,25,16,52,-0.60
2011,02,25,16,53,-0.60
2011,02,25,16,54,-0.60
2011,02,25,16,55,-0.60
2011,02,25,16,56,-0.60
2011,02,25,16,57,-0.70
2011,02,25,16,58,-0.70
2011,02,25,16,59,-0.70
2011,02,25,17,00,-0.70
2011,02,25,17,01,-0.80
2011,02,25,17,02,-0.80
2011,02,25,17,03,-0.90
2011,02,25,17,04,-0.90
2011,02,25,17,05,-1.00
2011,02,25,17,06,-1.00
2011,02,25,17,07,-1.10
2011,02,25,17,08,-1.10
2011,02,25,17,09,-1.10
2011,02,25,17,10,-1.20
2011,02,25,17,11,-1.20
2011,02,25,17,12,-1.30
2011,02,25,17,13,-1.30
2011,02,25,17,14,-1.30
2011,02,25,17,15,-1.40
2011,02,25,17,16,-1.40
2011,02,25,17,17,-1.40
2011,02,25,17,18,-1.50